Погода в Ропше

Россия / Санкт-Петербург и Ленинградская область     59°43′45″N   29°51′44″E
темп.,
°C
ветер,
м/с
пор.,
м/с
влажн.,
%
обл.,
%
осадки,
мм/ч
давл.,
гПа
погр.,
м
25 июля, вс
вс2500:00+11зюз226193 0.0 101732
03:00+14юз3752100 0.0 1017163
06:00+15юз41050100 0.0 1017322
09:00+18зюз4952100 0.0 1017464
12:00+22з564694 0.0 10181576
15:00+23зсз45426 0.0 10181614
18:00+23сз45415 0.0 10191245
21:00+18зсз226026 0.0 101915
26 июля, пн
пн2600:00+14з227038 0.0 102012
03:00+17юз2258100 0.0 102043
06:00+17зюз245792 0.0 102098
09:00+22зюз334780 0.0 1020414
12:00+26з33365 0.0 10211657
15:00+28сз433246 0.0 10202446
18:00+27сз323321 0.0 10201992
21:00+20с22595 0.0 102018
27 июля, вт
вт2700:00+17ю22640 0.0 102114
03:00+17ю22650 0.0 102125
06:00+17ю23670 0.0 102048
09:00+25ю23415 0.0 1020503
12:00+29юв22295 0.0 10192561
15:00+30юв322540 0.0 10173147
18:00+30ююв322548 0.0 10162908
21:00+23ююв34497 0.0 101560
28 июля, ср
ср2800:00+20ю355692 0.0 101571
03:00+19юв346292 0.0 101468
06:00+18юв25635 0.0 101393
09:00+26юв364476 0.0 1011512
12:00+29юв463394 0.0 10092127
15:00+28ююв453880 0.0 10071781
18:00+27ю5541100 0.0 10061668
21:00+20ююз4881100 0.1 1006330
29 июля, чт
чт2900:00+18ююз2792100 0.1 1005256
03:00+18ююз3992100 0.1 1004344
06:00+17юз489583 0.8 1003412
09:00+19юз4981100 0.8 1003964
12:00+23зюз696077 0.6 10021589
15:00+22зюз6107572 3.6 10021238
18:00+22з714550 0.8 10021657
21:00+19з715580 0.8 10021262